Location: Caltech
(34.1382°N, 118.1253°W)
Time: 03:06:00
(UTC-07:00)

Cosmos 2333 Rocket - Visible Passes

Search period start: 29 April 2016 00:00
Search period end: 09 May 2016 00:00
Orbit: 842 x 860 km, 70.8° (Epoch: 28 April)

Date Brightness Start Highest point End Pass type
(mag) Time Alt. Az. Time Alt. Az. Time Alt. Az.
29 Apr 4.1 01:42:17 25° NNE 01:42:17 25° NNE 01:44:32 10° NNE visible
29 Apr 4.6 03:24:17 10° NW 03:24:17 10° NW 03:24:33 10° NW visible
30 Apr 4.2 01:30:10 24° NNE 01:30:10 24° NNE 01:32:19 10° NNE visible
30 Apr 4.6 03:12:10 10° NW 03:12:10 10° NW 03:12:18 10° NW visible
01 May 4.2 01:18:01 23° NNE 01:18:01 23° NNE 01:20:06 10° NNE visible
01 May 4.7 03:00:01 10° NW 03:00:01 10° NW 03:00:03 10° NW visible
02 May 4.2 01:05:50 23° NNE 01:05:50 23° NNE 01:07:53 10° NNE visible
03 May 4.2 00:53:37 23° NNE 00:53:37 23° NNE 00:55:40 10° NNE visible
04 May 4.2 00:41:22 23° NNE 00:41:22 23° NNE 00:43:26 10° NNE visible
05 May 4.2 00:29:05 24° NNE 00:29:05 24° NNE 00:31:13 10° NNE visible
06 May 4.1 00:16:45 25° NNE 00:16:45 25° NNE 00:19:00 10° NNE visible
06 May 4.8 01:58:43 10° NW 01:58:43 10° NW 01:58:46 10° NW visible
07 May 4.0 00:04:22 26° NNE 00:04:22 26° NNE 00:06:46 10° NNE visible
07 May 4.8 01:46:20 10° NW 01:46:20 10° NW 01:46:29 10° NW visible
07 May 3.8 23:51:55 29° NNE 23:51:55 29° NNE 23:54:32 10° NNE visible
08 May 4.8 01:33:53 10° NW 01:34:00 10° NW 01:34:12 10° NW visible
08 May 3.7 23:39:25 32° NNE 23:39:25 32° NNE 23:42:20 10° NNE visible
